Regional Weather Roundup
Issued by NWS Glasgow, MT

Home | Current Version | Previous Version | Text Only | Print | Product List | Glossary On
Versions: 1 2 3 4 5 6 7 8 9 10 11 12 13 14 15 16 17 18 19 20 21 22 23 24 25 26 27 28 29 30 31 32 33 34 35 36 37 38 39 40 41 42 43 44 45 46 47 48 49 50
000
ASUS45 KGGW 292015
RWRGGW
HOURLY REGIONAL WEATHER ROUNDUP FOR NORTHEAST MONTANA
NATIONAL WEATHER SERVICE GLASGOW MONTANA
200 PM MDT SAT APR 29 2017

NOTE: "FAIR" INDICATES FEW OR NO CLOUDS BELOW 12,000 FEET WITH NO
SIGNIFICANT WEATHER AND/OR OBSTRUCTIONS TO VISISBILITY.

NORTHEAST MONTANA


CITY           SKY/WX    TMP DP  RH WIND       PRES   REMARKS
GLASGOW        MOSUNNY   59  30  33 SW8       30.18F
PLENTYWOOD       N/A     56  24  29 W7          N/A
WOLF POINT     MOSUNNY   60  31  33 W9        30.19F
JORDAN           N/A     57  29  34 SW9       30.18F
WINNETT          N/A     57  27  31 S12G22      N/A
SIDNEY         CLOUDY    59  34  39 S8        30.21F
GLENDIVE       PTSUNNY   58  30  34 SW7       30.22F
MALTA            N/A     61  35  37 S8          N/A

FORT PECK REPORTS


CITY           SKY/WX    TMP DP  RH WIND       PRES   REMARKS
FORT PECK        N/A     57  34  41 S3          N/A
THE PINES        N/A     61  30  31 CALM        N/A

SOUTHEAST MONTANA


CITY           SKY/WX    TMP DP  RH WIND       PRES   REMARKS
BILLINGS       PTSUNNY   52  32  46 S8        30.20F
MILES CITY     MOSUNNY   58  25  28 VRB3      30.21F
BAKER          PTSUNNY   56  26  31 W6        30.24F
LIVINGSTON     MOSUNNY   52  28  39 VRB5      30.16F

CENTRAL MONTANA


CITY           SKY/WX    TMP DP  RH WIND       PRES   REMARKS
HAVRE          PTSUNNY   58  32  37 W14G23    30.10F
LEWISTOWN      PTSUNNY   52  26  36 W7        30.14F
GREAT FALLS    MOSUNNY   56  29  35 SW10      30.13F
CUT BANK       PTSUNNY   55  24  30 W16       30.10F
HELENA         MOSUNNY   58  22  24 W13G20    30.15F
BUTTE          PTSUNNY   50  19  29 VRB5      30.16F
BOZEMAN        MOSUNNY   51  28  41 VRB5      30.18F

WESTERN MONTANA


CITY           SKY/WX    TMP DP  RH WIND       PRES   REMARKS
MISSOULA       MOSUNNY   53  31  42 CALM      30.19F
KALISPELL      NOT AVBL

NORTH DAKOTA


CITY           SKY/WX    TMP DP  RH WIND       PRES   REMARKS
WILLISTON      PTSUNNY   63  33  32 SW14      30.21S
DICKINSON      MOSUNNY   57  19  22 S7        30.21S
MINOT          MOSUNNY   63  25  23 SW9       30.20S
BISMARCK       SUNNY     61  18  18 VRB6      30.26S

SOUTHERN SASKATCHEWAN


CITY           SKY/WX    TMP DP  RH WIND       PRES   REMARKS
REGINA         PTSUNNY   55  27  33 SW10G18   30.18F
ESTEVAN        MOSUNNY   59  30  33 SW12G18   30.18F
SWIFT CURRENT  PTSUNNY   55  23  28 SW12G17   30.11F




USA.gov is the U.S. government's official web portal to all federal, state and local government web resources and services.